AirNav   Everest Fuels
 
 734 users online  

KNJW Joe Williams Naval Outlying Field
Meridian, Mississippi, USA

GOING TO MERIDIAN?


FAA INFORMATION EFFECTIVE 07 NOVEMBER 2019

Location

FAA Identifier: NJW
Lat/Long: 32-47-56.1360N 088-50-04.2950W
32-47.935600N 088-50.071583W
32.7989267,-88.8345264
(estimated)
Elevation: 539.1 ft. / 164 m (estimated)
Variation: 01W (2010)
Time zone: UTC -6 (UTC -5 during Daylight Saving Time)
Zip code: 39354

Airport Operations

Airport use: Private use. Permission required prior to landing
Control tower: yes
ARTCC: MEMPHIS CENTER
FSS: GREENWOOD FLIGHT SERVICE STATION
Attendance: MON-FRI 0800-1600
FOR OTHER HOURS OF OPERATION CTC MERIDIAN NAS BASE OPERATIONS.
Segmented circle: no
Lights: AVBL ONLY DURING HRS OF OPERATION.

Airport Communications

BRAVO TOWER TOWER: 118.475 279.2 [0800-1730 MON-FRI]
EMERG: 121.5 243.0
WX AWOS-3P at MPE (15 nm W): 118.725 (601-663-0040)
  • DURG HRS ATCT CLSD CTC NAVY MC CAIN ATCT ON FREQ 340.2.

Nearby radio navigation aids

VOR radial/distance  VOR name  Freq  Var
MEIr352/25.3MERIDIAN VORTAC117.0005E
EWAr320/32.2KEWANEE VORTAC113.8004E

Airport Services

Fuel available: A++

Runway Information

Runway 14/32

Dimensions: 8000 x 150 ft. / 2438 x 46 m
Surface: asphalt/concrete
Weight bearing capacity: 
PCN 30 /R/C/W/T
Runway edge lights: medium intensity
RUNWAY 14  RUNWAY 32
Latitude: 32-48.394717N32-47.476467N
Longitude: 088-50.632283W088-49.510883W
Elevation: 517.5 ft.539.1 ft.
Traffic pattern: leftleft
Runway heading: 135 magnetic, 134 true
USN FIL F0065-10 DATA PUBLISHED JUN 10 2010 IS PER NGA SURVEY 09-6010 DATED FEB 2009.
315 magnetic, 314 true
Touchdown point: yes, no lightsyes, no lights

Airport Ownership and Management from official FAA records

Ownership: U.S. Navy
Owner: US NAVY
COMTRAWING 1
NAS MERIDIAN, MS 39309

Additional Remarks

E60-32 HOOK E28(B) (1250')
E60-14 HOOK E28(B) (1250')
INTENSIVE LOCAL JET TRAFFIC TO 5000' WITHIN THE TRANSITION AREA.
NO TRANSIENT MAINTENANCE OR SERVICE AVAILABLE.
USN ELECTRIC OR AIR TYPE JET ACFT STARTING UNITS AVAILABLE.
RADAR SFA 134.1X, RADAR SFA 266.8X, RADAR SFA 300.4X, RADAR SFA 310.8X, RADAR SFA 322.0X, RADAR SFA 325.2X, RADAR SFA 328.4X, RADAR SFA 346.0X, RADAR SFA 363.6X.
FOR CD CTC MERIDIAN APCH 601-679-3691, WHEN MERIDIAN APCH CLSD CTC MEMPHIS ARTCC AT 901-368-8453.

Instrument Procedures

NOTE: All procedures below are presented as PDF files. If you need a reader for these files, you should download the free Adobe Reader.

NOT FOR NAVIGATION. Please procure official charts for flight.
FAA instrument procedures published for use from 07 November 2019 at 0901Z to 05 December 2019 at 0900Z.

Radar Approach Procedures available   download (55KB)

Other nearby airports with instrument procedures:

KMPE - Philadelphia Municipal Airport (15 nm W)
KNMM - Meridian Naval Air Station (Mc Cain Field) (20 nm SE)
KLMS - Louisville Winston County Airport (24 nm NW)
KMEI - Key Field Airport (28 nm S)
KAIV - George Downer Airport (37 nm NE)
 
Loc | Ops | Rwys | IFR | FBO | Links
Com | Nav | Svcs | Stats | Notes
Area around KNJW (Joe Williams Naval Outlying Field)
 
Road maps at: MapQuest Bing Google
 
Aerial photo
No photo
 
Sectional chart

 
Airport distance calculator
Flying to Joe Williams Naval Outlying Field? Find the distance to fly.

From to KNJW

Sunrise and sunset
Times for 21-Nov-2019
 Local
(UTC-6)
 Zulu
(UTC)
Morning civil twilight06:0612:06
Sunrise06:3212:32
Sunset16:5022:50
Evening civil twilight17:1723:17

Current date and time
Zulu (UTC)  21-Nov-2019 12:36:36
Local (UTC-6)  21-Nov-2019 06:36:36
 
METAR
KNMM 
21nm SE 
211156Z 17003KT 10SM BKN250 04/03 A3022 RMK AO2 SLP246 T00390028 10067 20039 50006
KMEI 
28nm S 
211158Z 00000KT 10SM CLR 05/03 A3023 RMK AO2 SLP236 I1000 I6/// T00500033 10056 20044 51009
KSTF 
38nm N 
211215Z AUTO 00000KT 10SM CLR 03/03 A3022 RMK AO2
KGTR 
41nm N 
211156Z 23003KT 10SM CLR 06/03 A3022 RMK AO2 SLP242 T00610033 10117 20061 53006
TAF
KNMM 
21nm SE 
2107/2207 17005KT 9999 FEW140 SCT250 QNH3013INS FM211500 17008KT 9999 FEW250 QNH3007INS FM212100 18010KT 9999 FEW030 SCT250 QNH3005INS AUTOMATED SENSOR METWATCH 2107 TIL 2112 T06/2112Z T21/2120Z FN00216
NOTAMs
Click for the latest NOTAMs
NOTAMs are issued by the DoD/FAA and will open in a separate window not controlled by AirNav.

 

 
 

Would you like to see your business listed on this page?

 If your business provides an interesting product or service to pilots, flight crews, aircraft, or users of the Joe Williams Naval Outlying Field, you should consider listing it here.  To start the listing process, click on the button below
 
Add a business
 

Other Pages about Joe Williams Naval Outlying Field

Update a link
 
Copyright © AirNav, LLC. All rights reserved. Privacy Policy  Contact